User: anonymous   Login
Location: Unspecified
(0.0000°N, 0.0000°E)
Time: 11:07:39
(UTC+00:00)
Language:

RAX-2 - Orbit

View from above orbital plane
View from above orbital plane
View from above satellite
View from above satellite

Ground track
Ground track

The orbit data is extracted from the following two-line orbital elements,

1 37853U 11061D   17145.54059053 +.00002073 +00000-0 +12405-3 0  9991
2 37853 101.7165 000.8071 0176136 155.8882 205.0700 15.01312018302760
Epoch (UTC): 25 May 2017 12:58:27
Eccentricity: 0.0176136
inclination: 101.7165°
perigee height: 440 km
apogee height: 685 km
right ascension of ascending node: 0.8071°
argument of perigee: 155.8882°
revolutions per day: 15.01312018
mean anomaly at epoch: 205.0700°
orbit number at epoch: 30276

The dashed part of the orbit path shows where the satellite is in the earth's shadow,  

DLR